Other Public Products
Issued by NWS Charleston, SC

Current Version | Previous Version | Text Only | Print | Product List | Glossary Off
Versions: 1 2 3 4 5 6 7 8 9 10 11 12 13 14 15 16 17 18 19 20 21 22 23 24 25 26 27 28 29 30 31 32 33 34 35 36 37 38 39 40 41 42 43 44 45 46 47 48 49 50

000
FPUS82 KCHS 290527
OPUCHS

TEST...KCHS/KSAV Gateway Observations...TEST
National Weather Service Charleston SC
100 AM EDT WED MAR 29 2017

NOTE: "fair" indicates few or no clouds below 12,000 feet with no
significant weather and/or obstructions to visibility.

SCZ050-WAZ558-NCZ071-TXZ119-213-PAZ071-DCZ001-FLZ074-172-MI076-
NYZ176-178-MAZ016-IL014-TNZ027-NJZ106-GAZ044-MD014-290600-

...Gateway Observations for Charleston International...

CITY           SKY/WX    TMP DP  RH WIND       PRES   REMARKS
Chas Airport   CLEAR     65  61  87 SW5       29.96S
Seattle        LGT RAIN  50  42  74 SE10      30.17S
Charlotte      PTCLDY    63  49  60 N3        30.01R
Dallas DFW     MOCLDY    75  61  61 SE17G29   29.68S
Dallas Love    MOCLDY    74  61  63 SE17G32   29.69F
Philladelphia  MOCLDY    48  45  89 N5        29.96S
Wash National  CLOUDY    62  54  74 N8        29.98R
Baltimore      CLOUDY    59  54  83 VRB3      29.96R
Miami          PTCLDY    76  65  68 SE5       30.03F
Detroit        CLEAR     39  32  76 NE7       30.23S WCI  34
Newark         CLOUDY    45  44  97 N7        29.94S
Laguardia      CLOUDY    44  41  89 NW6       29.93S
J F K          CLOUDY    44  43  96 N7        29.94S
Boston Logan   LGT RAIN  38  38 100 N9        29.96F WCI  31
Ft. Lauderdale MOCLDY    75  65  70 S3        30.03F
Chicago O`Hare FOG       36  34  92 NE9       30.23R VSB 1   WCI  29
Chicago Midway CLOUDY    38  36  92 NE9       30.23R WCI  31
Houston Bush   MOCLDY    76  67  73 S22G28    29.75F
Houston Hobby  MOCLDY    74  69  85 SE17G32   29.74F
Nashville      CLEAR     57  53  86 NE5       30.06S
Atlanta        CLEAR     65  57  75 NW7       30.01S

$$

GAZ044-118-TXZ119-213-NCZ071-DCZ001-MDZ014-506-PAZ021-071-NJZ106-
NYZ176-178-MAZ106-OHZ011-021-055-MIZ076-KYZ091-ILZ014-INZ047-
MNZ060-ONZ431-290600-

...Gateway Observations for Savannah International...

CITY           SKY/WX    TMP DP  RH WIND       PRES   REMARKS
Savannah Arpt  CLEAR     67  60  78 CALM      29.98F
Atlanta        CLEAR     65  57  75 NW7       30.01S
Charlotte      PTCLDY    63  49  60 N3        30.01R
Dallas DFW     MOCLDY    75  61  61 SE17G29   29.68S
Houston Bush   MOCLDY    76  67  73 S22G28    29.75F
Wash National  CLOUDY    62  54  74 N8        29.98R
Wash Dulles    DRIZZLE   59  57  93 NW3       29.98R FOG
Baltimore      CLOUDY    59  54  83 VRB3      29.96R
Philadelphia   MOCLDY    48  45  89 N5        29.96S
Newark         CLOUDY    45  44  97 N7        29.94S
Laguardia      CLOUDY    44  41  89 NW6       29.93S
J F K          CLOUDY    44  43  96 N7        29.94S
Boston         LGT RAIN  38  38 100 N9        29.96F WCI  31
Pittsburg      CLOUDY    46  42  86 N9        30.12R
Akron          CLOUDY    42  38  85 N9        30.16R FOG
Cleveland      DRIZZLE   39  34  82 N7        30.22S WCI  34
Cincinnati     CLOUDY    52  47  83 NE10      30.13F
Columbus       CLOUDY    45  41  88 N10       30.17S
Detroit        CLEAR     39  32  76 NE7       30.23S WCI  34
Chicago O`Hare FOG       36  34  92 NE9       30.23R VSB 1   WCI  29
Minneapolis    CLOUDY    51  31  46 NE5       30.19F
Indianapolis   CLOUDY    50  44  80 NE8       30.14F
Toronto Canada CLEAR     36  30  80 N10       30.17S WCI  28

$$




USA.gov is the U.S. government's official web portal to all federal, state and local government web resources and services.